contact:dominique.lefevre@mio.osupytheas.fr, maurice.libes@osupytheas.fr, didier.mallarino@osupytheas.fr
Project:EMSO http://www.emso-fr.org/EMSO-France
Depth: 2436.0 m
Title:EMSO Ligure Ouest : Data MII capteur MICROCAT
DateTime_Computer,Latitude,Longitude,Temperature,Conductivity,Pressure,DateTime_Instrument
DateTime_Computer,Latitude,Longitude,degC,S m-1,dbar,DateTime_Instrument
2021-09-23T00:02:30Z,42.805,6.029,13.2998,4.60074,2470.437,2021-9-23T02:03:52Z
2021-09-23T00:05:33Z,42.805,6.029,13.3016,4.60060,2470.45,2021-9-23T02:06:55Z
2021-09-23T00:08:36Z,42.805,6.029,13.3006,4.60074,2470.39,2021-9-23T02:09:58Z
2021-09-23T00:11:39Z,42.805,6.029,13.3026,4.60078,2470.413,2021-9-23T02:13:01Z
2021-09-23T00:14:43Z,42.805,6.029,13.3009,4.60070,2470.38,2021-9-23T02:16:04Z
2021-09-23T00:17:46Z,42.805,6.029,13.3014,4.60087,2470.427,2021-9-23T02:19:07Z
2021-09-23T00:20:49Z,42.805,6.029,13.3014,4.60079,2470.427,2021-9-23T02:22:10Z
2021-09-23T00:23:52Z,42.805,6.029,13.3024,4.60080,2470.39,2021-9-23T02:25:14Z
2021-09-23T00:26:55Z,42.805,6.029,13.3004,4.60078,2470.427,2021-9-23T02:28:17Z
2021-09-23T00:29:58Z,42.805,6.029,13.3009,4.60087,2470.413,2021-9-23T02:31:20Z
2021-09-23T00:33:01Z,42.805,6.029,13.3037,4.60088,2470.427,2021-9-23T02:34:23Z
2021-09-23T00:36:04Z,42.805,6.029,13.3015,4.60102,2470.427,2021-9-23T02:37:26Z
2021-09-23T00:39:08Z,42.805,6.029,13.3031,4.60077,2470.427,2021-9-23T02:40:29Z
2021-09-23T00:42:11Z,42.805,6.029,13.3026,4.60076,2470.413,2021-9-23T02:43:32Z
2021-09-23T00:45:14Z,42.805,6.029,13.3019,4.60074,2470.427,2021-9-23T02:46:35Z
2021-09-23T00:48:17Z,42.805,6.029,13.3039,4.60056,2470.38,2021-9-23T02:49:39Z
2021-09-23T00:51:20Z,42.805,6.029,13.3042,4.60077,2470.404,2021-9-23T02:52:42Z
2021-09-23T00:54:23Z,42.805,6.029,13.3039,4.60078,2470.39,2021-9-23T02:55:45Z
2021-09-23T00:57:26Z,42.805,6.029,13.3039,4.60106,2470.38,2021-9-23T02:58:48Z
2021-09-23T01:00:29Z,42.805,6.029,13.3013,4.60105,2470.39,2021-9-23T03:01:51Z
2021-09-23T01:03:33Z,42.805,6.029,13.3041,4.60054,2470.413,2021-9-23T03:04:54Z
2021-09-23T01:06:36Z,42.805,6.029,13.3039,4.60064,2470.413,2021-9-23T03:07:57Z
2021-09-23T01:09:39Z,42.805,6.029,13.3039,4.60064,2470.39,2021-9-23T03:11:00Z
2021-09-23T01:12:42Z,42.805,6.029,13.3043,4.60085,2470.366,2021-9-23T03:14:04Z
2021-09-23T01:15:45Z,42.805,6.029,13.3039,4.60061,2470.404,2021-9-23T03:17:07Z
2021-09-23T01:18:48Z,42.805,6.029,13.3043,4.60120,2470.38,2021-9-23T03:20:10Z
2021-09-23T01:21:51Z,42.805,6.029,13.3048,4.60073,2470.38,2021-9-23T03:23:13Z
2021-09-23T01:24:54Z,42.805,6.029,13.3046,4.60085,2470.357,2021-9-23T03:26:16Z
2021-09-23T01:27:57Z,42.805,6.029,13.3020,4.60077,2470.366,2021-9-23T03:29:19Z
2021-09-23T01:31:01Z,42.805,6.029,13.3037,4.60102,2470.427,2021-9-23T03:32:22Z
2021-09-23T01:34:04Z,42.805,6.029,13.3050,4.60087,2470.357,2021-9-23T03:35:25Z
2021-09-23T01:37:07Z,42.805,6.029,13.3063,4.60046,2470.38,2021-9-23T03:38:29Z
2021-09-23T01:40:10Z,42.805,6.029,13.3057,4.60097,2470.404,2021-9-23T03:41:32Z
2021-09-23T01:43:13Z,42.805,6.029,13.3050,4.60085,2470.38,2021-9-23T03:44:35Z
2021-09-23T01:46:16Z,42.805,6.029,13.3014,4.60078,2470.38,2021-9-23T03:47:38Z
2021-09-23T01:49:19Z,42.805,6.029,13.3043,4.60089,2470.343,2021-9-23T03:50:41Z
2021-09-23T01:52:22Z,42.805,6.029,13.3049,4.60112,2470.357,2021-9-23T03:53:44Z
2021-09-23T01:55:26Z,42.805,6.029,13.3065,4.60096,2470.39,2021-9-23T03:56:47Z
2021-09-23T01:58:29Z,42.805,6.029,13.3072,4.60090,2470.343,2021-9-23T03:59:50Z
2021-09-23T02:01:32Z,42.805,6.029,13.3059,4.60074,2470.38,2021-9-23T04:02:54Z
2021-09-23T02:04:35Z,42.805,6.029,13.3054,4.60099,2470.38,2021-9-23T04:05:57Z
2021-09-23T02:07:38Z,42.805,6.029,13.3051,4.60109,2470.357,2021-9-23T04:09:00Z
2021-09-23T02:10:41Z,42.805,6.029,13.3054,4.60087,2470.39,2021-9-23T04:12:03Z
2021-09-23T02:13:44Z,42.805,6.029,13.3076,4.60044,2470.366,2021-9-23T04:15:06Z
2021-09-23T02:16:47Z,42.805,6.029,13.3070,4.60126,2470.357,2021-9-23T04:18:09Z
2021-09-23T02:19:51Z,42.805,6.029,13.3054,4.60132,2470.38,2021-9-23T04:21:12Z
2021-09-23T02:22:54Z,42.805,6.029,13.3025,4.60036,2470.357,2021-9-23T04:24:15Z
2021-09-23T02:25:57Z,42.805,6.029,13.3032,4.60078,2470.343,2021-9-23T04:27:19Z
2021-09-23T02:29:00Z,42.805,6.029,13.3042,4.60062,2470.38,2021-9-23T04:30:22Z
2021-09-23T02:32:03Z,42.805,6.029,13.3051,4.60069,2470.357,2021-9-23T04:33:25Z
2021-09-23T02:35:06Z,42.805,6.029,13.3043,4.60077,2470.357,2021-9-23T04:36:28Z
2021-09-23T02:38:09Z,42.805,6.029,13.3067,4.60066,2470.366,2021-9-23T04:39:31Z
2021-09-23T02:41:12Z,42.805,6.029,13.3064,4.60055,2470.38,2021-9-23T04:42:34Z
2021-09-23T02:44:16Z,42.805,6.029,13.3031,4.60061,2470.38,2021-9-23T04:45:37Z
2021-09-23T02:47:19Z,42.805,6.029,13.3045,4.60090,2470.357,2021-9-23T04:48:40Z
2021-09-23T02:50:22Z,42.805,6.029,13.3053,4.60042,2470.38,2021-9-23T04:51:44Z
2021-09-23T02:53:25Z,42.805,6.029,13.3036,4.60041,2470.357,2021-9-23T04:54:47Z
2021-09-23T02:56:28Z,42.805,6.029,13.3048,4.60073,2470.334,2021-9-23T04:57:50Z
2021-09-23T02:59:31Z,42.805,6.029,13.3016,4.60064,2470.334,2021-9-23T05:00:53Z
2021-09-23T03:02:34Z,42.805,6.029,13.3023,4.60052,2470.357,2021-9-23T05:03:56Z
2021-09-23T03:05:37Z,42.805,6.029,13.3082,4.60049,2470.343,2021-9-23T05:06:59Z
2021-09-23T03:08:41Z,42.805,6.029,13.3004,4.60064,2470.334,2021-9-23T05:10:02Z
2021-09-23T03:11:44Z,42.805,6.029,13.3021,4.60101,2470.371,2021-9-23T05:13:05Z
2021-09-23T03:14:47Z,42.805,6.029,13.3041,4.60141,2470.32,2021-9-23T05:16:08Z
2021-09-23T03:17:50Z,42.805,6.029,13.3036,4.60077,2470.366,2021-9-23T05:19:12Z
2021-09-23T03:20:53Z,42.805,6.029,13.3052,4.60082,2470.32,2021-9-23T05:22:15Z
2021-09-23T03:23:56Z,42.805,6.029,13.3063,4.60039,2470.357,2021-9-23T05:25:18Z
2021-09-23T03:26:59Z,42.805,6.029,13.3056,4.60102,2470.32,2021-9-23T05:28:21Z
2021-09-23T03:30:02Z,42.805,6.029,13.3057,4.60049,2470.32,2021-9-23T05:31:24Z
2021-09-23T03:33:06Z,42.805,6.029,13.3043,4.60069,2470.297,2021-9-23T05:34:27Z
2021-09-23T03:36:09Z,42.805,6.029,13.3044,4.60069,2470.32,2021-9-23T05:37:30Z
2021-09-23T03:39:12Z,42.805,6.029,13.3038,4.60050,2470.334,2021-9-23T05:40:33Z
2021-09-23T03:42:15Z,42.805,6.029,13.3041,4.60051,2470.32,2021-9-23T05:43:37Z
2021-09-23T03:45:18Z,42.805,6.029,13.3029,4.60049,2470.38,2021-9-23T05:46:40Z
2021-09-23T03:48:21Z,42.805,6.029,13.3043,4.60088,2470.343,2021-9-23T05:49:43Z
2021-09-23T03:51:24Z,42.805,6.029,13.3038,4.60062,2470.334,2021-9-23T05:52:46Z
2021-09-23T03:54:27Z,42.805,6.029,13.3027,4.60057,2470.357,2021-9-23T05:55:49Z
2021-09-23T03:57:31Z,42.805,6.029,13.3008,4.60076,2470.404,2021-9-23T05:58:52Z
2021-09-23T04:00:34Z,42.805,6.029,13.3009,4.60046,2470.343,2021-9-23T06:01:55Z
2021-09-23T04:03:37Z,42.805,6.029,13.3005,4.60051,2470.366,2021-9-23T06:04:58Z
2021-09-23T04:06:40Z,42.805,6.029,13.3009,4.60070,2470.334,2021-9-23T06:08:02Z
2021-09-23T04:09:43Z,42.805,6.029,13.3024,4.60044,2470.334,2021-9-23T06:11:05Z
2021-09-23T04:12:46Z,42.805,6.029,13.3014,4.60030,2470.38,2021-9-23T06:14:08Z
2021-09-23T04:15:49Z,42.805,6.029,13.3011,4.60081,2470.32,2021-9-23T06:17:11Z
2021-09-23T04:18:52Z,42.805,6.029,13.3019,4.60021,2470.38,2021-9-23T06:20:14Z
2021-09-23T04:21:56Z,42.805,6.029,13.3044,4.60029,2470.366,2021-9-23T06:23:17Z
2021-09-23T04:24:59Z,42.805,6.029,13.3023,4.60023,2470.343,2021-9-23T06:26:20Z
2021-09-23T04:28:02Z,42.805,6.029,13.3004,4.60044,2470.343,2021-9-23T06:29:23Z
2021-09-23T04:31:05Z,42.805,6.029,13.3009,4.60046,2470.404,2021-9-23T06:32:27Z
2021-09-23T04:34:08Z,42.805,6.029,13.3041,4.60031,2470.38,2021-9-23T06:35:30Z
2021-09-23T04:37:11Z,42.805,6.029,13.3019,4.60048,2470.38,2021-9-23T06:38:33Z
2021-09-23T04:40:14Z,42.805,6.029,13.3013,4.60073,2470.39,2021-9-23T06:41:36Z
2021-09-23T04:43:17Z,42.805,6.029,13.3020,4.60056,2470.38,2021-9-23T06:44:39Z
2021-09-23T04:46:21Z,42.805,6.029,13.3034,4.60044,2470.366,2021-9-23T06:47:42Z
2021-09-23T04:49:24Z,42.805,6.029,13.3042,4.60062,2470.357,2021-9-23T06:50:45Z
2021-09-23T04:52:27Z,42.805,6.029,13.3034,4.60047,2470.39,2021-9-23T06:53:48Z
2021-09-23T04:55:30Z,42.805,6.029,13.3035,4.60054,2470.38,2021-9-23T06:56:52Z
2021-09-23T04:58:33Z,42.805,6.029,13.3034,4.60031,2470.39,2021-9-23T06:59:55Z
2021-09-23T05:01:36Z,42.805,6.029,13.3018,4.60049,2470.413,2021-9-23T07:02:58Z
2021-09-23T05:04:39Z,42.805,6.029,13.3028,4.60068,2470.38,2021-9-23T07:06:01Z
2021-09-23T05:07:42Z,42.805,6.029,13.3013,4.60052,2470.427,2021-9-23T07:09:04Z
2021-09-23T05:10:46Z,42.805,6.029,13.3020,4.60045,2470.437,2021-9-23T07:12:07Z
2021-09-23T05:13:49Z,42.805,6.029,13.3060,4.60057,2470.427,2021-9-23T07:15:10Z
2021-09-23T05:16:52Z,42.805,6.029,13.3050,4.60038,2470.404,2021-9-23T07:18:13Z
2021-09-23T05:19:55Z,42.805,6.029,13.3044,4.60044,2470.39,2021-9-23T07:21:17Z
2021-09-23T05:22:58Z,42.805,6.029,13.3035,4.60029,2470.427,2021-9-23T07:24:20Z
2021-09-23T05:26:01Z,42.805,6.029,13.3053,4.60035,2470.427,2021-9-23T07:27:23Z
2021-09-23T05:29:04Z,42.805,6.029,13.3060,4.60039,2470.404,2021-9-23T07:30:26Z
2021-09-23T05:32:07Z,42.805,6.029,13.3049,4.60040,2470.427,2021-9-23T07:33:29Z
2021-09-23T05:35:10Z,42.805,6.029,13.3063,4.60056,2470.427,2021-9-23T07:36:32Z
2021-09-23T05:38:14Z,42.805,6.029,13.3059,4.60042,2470.437,2021-9-23T07:39:35Z
2021-09-23T05:41:17Z,42.805,6.029,13.3063,4.60053,2470.413,2021-9-23T07:42:38Z
2021-09-23T05:44:20Z,42.805,6.029,13.3058,4.60029,2470.437,2021-9-23T07:45:42Z
2021-09-23T05:47:23Z,42.805,6.029,13.3058,4.60049,2470.45,2021-9-23T07:48:45Z
2021-09-23T05:50:26Z,42.805,6.029,13.3030,4.60057,2470.45,2021-9-23T07:51:48Z
2021-09-23T05:53:29Z,42.805,6.029,13.3056,4.60064,2470.437,2021-9-23T07:54:51Z
2021-09-23T05:56:32Z,42.805,6.029,13.3061,4.60037,2470.45,2021-9-23T07:57:54Z
2021-09-23T05:59:36Z,42.805,6.029,13.3070,4.60035,2470.427,2021-9-23T08:00:57Z
2021-09-23T06:02:39Z,42.805,6.029,13.3079,4.60062,2470.437,2021-9-23T08:04:00Z
2021-09-23T06:05:42Z,42.805,6.029,13.2996,4.60115,2470.474,2021-9-23T08:07:03Z
2021-09-23T06:08:45Z,42.805,6.029,13.2991,4.60099,2470.474,2021-9-23T08:10:07Z
2021-09-23T06:11:48Z,42.805,6.029,13.2993,4.60070,2470.46,2021-9-23T08:13:10Z
2021-09-23T06:14:51Z,42.805,6.029,13.2991,4.60035,2470.45,2021-9-23T08:16:13Z
2021-09-23T06:17:54Z,42.805,6.029,13.2991,4.60021,2470.46,2021-9-23T08:19:16Z
2021-09-23T06:20:57Z,42.805,6.029,13.2995,4.60020,2470.46,2021-9-23T08:22:19Z
2021-09-23T06:24:00Z,42.805,6.029,13.2988,4.60029,2470.497,2021-9-23T08:25:22Z
2021-09-23T06:27:04Z,42.805,6.029,13.2991,4.60024,2470.483,2021-9-23T08:28:25Z
2021-09-23T06:30:07Z,42.805,6.029,13.2986,4.60027,2470.474,2021-9-23T08:31:28Z
2021-09-23T06:33:10Z,42.805,6.029,13.2992,4.60019,2470.46,2021-9-23T08:34:31Z
2021-09-23T06:36:13Z,42.805,6.029,13.2989,4.60019,2470.474,2021-9-23T08:37:35Z
2021-09-23T06:39:16Z,42.805,6.029,13.2987,4.60016,2470.483,2021-9-23T08:40:38Z
2021-09-23T06:42:19Z,42.805,6.029,13.2986,4.60014,2470.483,2021-9-23T08:43:41Z
2021-09-23T06:45:22Z,42.805,6.029,13.2986,4.60021,2470.52,2021-9-23T08:46:44Z
2021-09-23T06:48:25Z,42.805,6.029,13.2991,4.60018,2470.52,2021-9-23T08:49:47Z
2021-09-23T06:51:29Z,42.805,6.029,13.2989,4.60030,2470.507,2021-9-23T08:52:50Z
2021-09-23T06:54:32Z,42.805,6.029,13.2991,4.60016,2470.52,2021-9-23T08:55:53Z
2021-09-23T06:57:35Z,42.805,6.029,13.2988,4.60029,2470.52,2021-9-23T08:58:56Z
2021-09-23T07:00:38Z,42.805,6.029,13.2989,4.60022,2470.483,2021-9-23T09:02:00Z
2021-09-23T07:03:41Z,42.805,6.029,13.2986,4.60020,2470.544,2021-9-23T09:05:03Z
2021-09-23T07:06:44Z,42.805,6.029,13.2988,4.60016,2470.507,2021-9-23T09:08:06Z
2021-09-23T07:09:47Z,42.805,6.029,13.2988,4.60018,2470.507,2021-9-23T09:11:09Z
2021-09-23T07:12:50Z,42.805,6.029,13.2989,4.60015,2470.52,2021-9-23T09:14:12Z
2021-09-23T07:15:54Z,42.805,6.029,13.2987,4.60015,2470.507,2021-9-23T09:17:15Z
2021-09-23T07:18:57Z,42.805,6.029,13.2991,4.60019,2470.497,2021-9-23T09:20:18Z
2021-09-23T07:22:00Z,42.805,6.029,13.2989,4.60021,2470.507,2021-9-23T09:23:21Z
2021-09-23T07:25:03Z,42.805,6.029,13.2991,4.60029,2470.52,2021-9-23T09:26:25Z
2021-09-23T07:28:06Z,42.805,6.029,13.2989,4.60026,2470.52,2021-9-23T09:29:28Z
2021-09-23T07:31:09Z,42.805,6.029,13.2986,4.60027,2470.507,2021-9-23T09:32:31Z
2021-09-23T07:34:12Z,42.805,6.029,13.2987,4.60030,2470.567,2021-9-23T09:35:34Z
2021-09-23T07:37:15Z,42.805,6.029,13.2985,4.60029,2470.544,2021-9-23T09:38:37Z
2021-09-23T07:40:19Z,42.805,6.029,13.2990,4.60019,2470.483,2021-9-23T09:41:40Z
2021-09-23T07:43:22Z,42.805,6.029,13.2987,4.60031,2470.483,2021-9-23T09:44:43Z
2021-09-23T07:46:25Z,42.805,6.029,13.2988,4.60029,2470.507,2021-9-23T09:47:46Z
2021-09-23T07:49:28Z,42.805,6.029,13.2989,4.60026,2470.553,2021-9-23T09:50:50Z
2021-09-23T07:52:31Z,42.805,6.029,13.2985,4.60023,2470.507,2021-9-23T09:53:53Z
2021-09-23T07:55:34Z,42.805,6.029,13.2988,4.60026,2470.53,2021-9-23T09:56:56Z
2021-09-23T07:58:37Z,42.805,6.029,13.2988,4.60023,2470.567,2021-9-23T09:59:59Z
2021-09-23T08:01:40Z,42.805,6.029,13.2988,4.60023,2470.483,2021-9-23T10:03:02Z
2021-09-23T08:04:44Z,42.805,6.029,13.2988,4.60014,2470.544,2021-9-23T10:06:05Z
2021-09-23T08:07:47Z,42.805,6.029,13.2985,4.60024,2470.507,2021-9-23T10:09:08Z
2021-09-23T08:10:50Z,42.805,6.029,13.2986,4.60028,2470.507,2021-9-23T10:12:11Z
2021-09-23T08:13:53Z,42.805,6.029,13.2990,4.60024,2470.567,2021-9-23T10:15:15Z
2021-09-23T08:16:56Z,42.805,6.029,13.2989,4.60029,2470.591,2021-9-23T10:18:18Z
2021-09-23T08:19:59Z,42.805,6.029,13.2986,4.60029,2470.497,2021-9-23T10:21:21Z
2021-09-23T08:23:02Z,42.805,6.029,13.2988,4.60014,2470.53,2021-9-23T10:24:24Z
2021-09-23T08:26:05Z,42.805,6.029,13.2988,4.60021,2470.52,2021-9-23T10:27:27Z
2021-09-23T08:29:09Z,42.805,6.029,13.2990,4.60031,2470.567,2021-9-23T10:30:30Z
2021-09-23T08:32:12Z,42.805,6.029,13.2989,4.60022,2470.507,2021-9-23T10:33:33Z
2021-09-23T08:35:15Z,42.805,6.029,13.2990,4.60031,2470.544,2021-9-23T10:36:36Z
2021-09-23T08:38:18Z,42.805,6.029,13.2989,4.60019,2470.53,2021-9-23T10:39:40Z
2021-09-23T08:41:21Z,42.805,6.029,13.2991,4.60031,2470.53,2021-9-23T10:42:43Z
2021-09-23T08:44:24Z,42.805,6.029,13.2990,4.60034,2470.544,2021-9-23T10:45:46Z
2021-09-23T08:47:27Z,42.805,6.029,13.2991,4.60036,2470.544,2021-9-23T10:48:49Z
2021-09-23T08:50:30Z,42.805,6.029,13.2984,4.60036,2470.544,2021-9-23T10:51:52Z
2021-09-23T08:53:34Z,42.805,6.029,13.2989,4.60021,2470.497,2021-9-23T10:54:55Z
2021-09-23T08:56:37Z,42.805,6.029,13.2991,4.60042,2470.544,2021-9-23T10:57:58Z
2021-09-23T08:59:40Z,42.805,6.029,13.2991,4.60027,2470.544,2021-9-23T11:01:01Z
2021-09-23T09:02:43Z,42.805,6.029,13.2988,4.60030,2470.507,2021-9-23T11:04:05Z
2021-09-23T09:05:46Z,42.805,6.029,13.2989,4.60020,2470.483,2021-9-23T11:07:08Z
2021-09-23T09:08:49Z,42.805,6.029,13.2985,4.60040,2470.52,2021-9-23T11:10:11Z
2021-09-23T09:11:52Z,42.805,6.029,13.2990,4.60011,2470.52,2021-9-23T11:13:14Z
2021-09-23T09:14:55Z,42.805,6.029,13.2986,4.60021,2470.497,2021-9-23T11:16:17Z
2021-09-23T09:17:59Z,42.805,6.029,13.2990,4.60019,2470.52,2021-9-23T11:19:20Z
2021-09-23T09:21:02Z,42.805,6.029,13.2988,4.60029,2470.507,2021-9-23T11:22:23Z
2021-09-23T09:24:05Z,42.805,6.029,13.2987,4.60026,2470.507,2021-9-23T11:25:27Z
2021-09-23T09:27:08Z,42.805,6.029,13.2990,4.60025,2470.53,2021-9-23T11:28:30Z
2021-09-23T09:30:11Z,42.805,6.029,13.2990,4.60016,2470.544,2021-9-23T11:31:33Z
2021-09-23T09:33:14Z,42.805,6.029,13.2987,4.60025,2470.497,2021-9-23T11:34:36Z
2021-09-23T09:36:17Z,42.805,6.029,13.2991,4.60024,2470.507,2021-9-23T11:37:39Z
2021-09-23T09:39:21Z,42.805,6.029,13.2992,4.60015,2470.507,2021-9-23T11:40:42Z
2021-09-23T09:42:24Z,42.805,6.029,13.2990,4.60021,2470.507,2021-9-23T11:43:45Z
2021-09-23T09:45:27Z,42.805,6.029,13.2993,4.60025,2470.497,2021-9-23T11:46:48Z
2021-09-23T09:48:30Z,42.805,6.029,13.2997,4.60011,2470.507,2021-9-23T11:49:52Z
2021-09-23T09:51:33Z,42.805,6.029,13.2989,4.60012,2470.46,2021-9-23T11:52:55Z
2021-09-23T09:54:36Z,42.805,6.029,13.2986,4.60013,2470.52,2021-9-23T11:55:58Z
2021-09-23T09:57:39Z,42.805,6.029,13.2991,4.60016,2470.497,2021-9-23T11:59:01Z
2021-09-23T10:00:42Z,42.805,6.029,13.2991,4.60011,2470.46,2021-9-23T12:02:04Z
2021-09-23T10:03:46Z,42.805,6.029,13.2992,4.60011,2470.507,2021-9-23T12:05:07Z
2021-09-23T10:06:49Z,42.805,6.029,13.2996,4.60010,2470.483,2021-9-23T12:08:10Z
2021-09-23T10:09:52Z,42.805,6.029,13.2995,4.60009,2470.507,2021-9-23T12:11:13Z
2021-09-23T10:12:55Z,42.805,6.029,13.2992,4.60011,2470.46,2021-9-23T12:14:17Z
2021-09-23T10:15:58Z,42.805,6.029,13.2999,4.60021,2470.46,2021-9-23T12:17:20Z
2021-09-23T10:19:01Z,42.805,6.029,13.2998,4.60014,2470.474,2021-9-23T12:20:23Z
2021-09-23T10:22:04Z,42.805,6.029,13.2996,4.60013,2470.497,2021-9-23T12:23:26Z
2021-09-23T10:25:07Z,42.805,6.029,13.2996,4.60010,2470.483,2021-9-23T12:26:29Z
2021-09-23T10:28:11Z,42.805,6.029,13.3004,4.60011,2470.46,2021-9-23T12:29:32Z
2021-09-23T10:31:14Z,42.805,6.029,13.3003,4.60011,2470.46,2021-9-23T12:32:35Z
2021-09-23T10:34:17Z,42.805,6.029,13.3006,4.60013,2470.46,2021-9-23T12:35:38Z
2021-09-23T10:37:20Z,42.805,6.029,13.3004,4.60016,2470.45,2021-9-23T12:38:42Z
2021-09-23T10:40:23Z,42.805,6.029,13.2997,4.60015,2470.427,2021-9-23T12:41:45Z
2021-09-23T10:43:26Z,42.805,6.029,13.3001,4.60025,2470.497,2021-9-23T12:44:48Z
2021-09-23T10:46:29Z,42.805,6.029,13.2993,4.60020,2470.474,2021-9-23T12:47:51Z
2021-09-23T10:49:32Z,42.805,6.029,13.2996,4.60016,2470.413,2021-9-23T12:50:54Z
2021-09-23T10:52:36Z,42.805,6.029,13.2995,4.60019,2470.437,2021-9-23T12:53:57Z
2021-09-23T10:55:39Z,42.805,6.029,13.3000,4.60017,2470.474,2021-9-23T12:57:00Z
2021-09-23T10:58:42Z,42.805,6.029,13.2986,4.60014,2470.474,2021-9-23T13:00:03Z
2021-09-23T11:01:45Z,42.805,6.029,13.2991,4.60021,2470.437,2021-9-23T13:03:07Z
2021-09-23T11:04:48Z,42.805,6.029,13.2989,4.60020,2470.413,2021-9-23T13:06:10Z
2021-09-23T11:07:51Z,42.805,6.029,13.2991,4.60016,2470.437,2021-9-23T13:09:13Z
2021-09-23T11:10:54Z,42.805,6.029,13.2998,4.60013,2470.46,2021-9-23T13:12:16Z
2021-09-23T11:13:57Z,42.805,6.029,13.2991,4.60026,2470.437,2021-9-23T13:15:19Z
2021-09-23T11:17:01Z,42.805,6.029,13.2986,4.60013,2470.413,2021-9-23T13:18:22Z
2021-09-23T11:20:04Z,42.805,6.029,13.2989,4.60014,2470.427,2021-9-23T13:21:25Z
2021-09-23T11:23:07Z,42.805,6.029,13.2998,4.60023,2470.437,2021-9-23T13:24:28Z
2021-09-23T11:26:10Z,42.805,6.029,13.2996,4.60016,2470.427,2021-9-23T13:27:32Z
2021-09-23T11:29:13Z,42.805,6.029,13.2997,4.60011,2470.437,2021-9-23T13:30:35Z
2021-09-23T11:32:16Z,42.805,6.029,13.2996,4.60014,2470.427,2021-9-23T13:33:38Z
2021-09-23T11:35:19Z,42.805,6.029,13.2993,4.60022,2470.413,2021-9-23T13:36:41Z
2021-09-23T11:38:22Z,42.805,6.029,13.2996,4.60029,2470.423,2021-9-23T13:39:44Z
2021-09-23T11:41:26Z,42.805,6.029,13.2995,4.60029,2470.437,2021-9-23T13:42:47Z
2021-09-23T11:44:29Z,42.805,6.029,13.2995,4.60038,2470.437,2021-9-23T13:45:50Z
2021-09-23T11:47:32Z,42.805,6.029,13.2998,4.60029,2470.437,2021-9-23T13:48:54Z
2021-09-23T11:50:35Z,42.805,6.029,13.2993,4.60024,2470.413,2021-9-23T13:51:57Z
2021-09-23T11:53:38Z,42.805,6.029,13.2998,4.60027,2470.427,2021-9-23T13:55:00Z
2021-09-23T11:56:41Z,42.805,6.029,13.2993,4.60023,2470.427,2021-9-23T13:58:03Z
2021-09-23T11:59:44Z,42.805,6.029,13.2991,4.60018,2470.404,2021-9-23T14:01:06Z
2021-09-23T12:02:48Z,42.805,6.029,13.2997,4.60009,2470.413,2021-9-23T14:04:09Z
2021-09-23T12:05:51Z,42.805,6.029,13.2993,4.60016,2470.413,2021-9-23T14:07:12Z
2021-09-23T12:08:54Z,42.805,6.029,13.2996,4.60019,2470.45,2021-9-23T14:10:15Z
2021-09-23T12:11:57Z,42.805,6.029,13.2992,4.60021,2470.45,2021-9-23T14:13:19Z
2021-09-23T12:15:00Z,42.805,6.029,13.2994,4.60033,2470.427,2021-9-23T14:16:22Z
2021-09-23T12:18:03Z,42.805,6.029,13.2988,4.60016,2470.427,2021-9-23T14:19:25Z
2021-09-23T12:21:06Z,42.805,6.029,13.2993,4.60020,2470.39,2021-9-23T14:22:28Z
2021-09-23T12:24:09Z,42.805,6.029,13.2989,4.60033,2470.413,2021-9-23T14:25:31Z
2021-09-23T12:27:13Z,42.805,6.029,13.2993,4.60044,2470.39,2021-9-23T14:28:34Z
2021-09-23T12:30:16Z,42.805,6.029,13.2991,4.60025,2470.427,2021-9-23T14:31:37Z
2021-09-23T12:33:19Z,42.805,6.029,13.2991,4.60020,2470.413,2021-9-23T14:34:40Z
2021-09-23T12:36:22Z,42.805,6.029,13.2997,4.60023,2470.45,2021-9-23T14:37:44Z
2021-09-23T12:39:25Z,42.805,6.029,13.3001,4.60049,2470.404,2021-9-23T14:40:47Z
2021-09-23T12:42:28Z,42.805,6.029,13.3006,4.60029,2470.413,2021-9-23T14:43:50Z
2021-09-23T12:45:31Z,42.805,6.029,13.3005,4.60023,2470.38,2021-9-23T14:46:53Z
2021-09-23T12:48:34Z,42.805,6.029,13.2998,4.60015,2470.427,2021-9-23T14:49:56Z
2021-09-23T12:51:38Z,42.805,6.029,13.3000,4.60019,2470.427,2021-9-23T14:52:59Z
2021-09-23T12:54:41Z,42.805,6.029,13.2993,4.60021,2470.39,2021-9-23T14:56:02Z
2021-09-23T12:57:44Z,42.805,6.029,13.3002,4.60020,2470.413,2021-9-23T14:59:05Z
2021-09-23T13:00:47Z,42.805,6.029,13.3000,4.60027,2470.427,2021-9-23T15:02:09Z
2021-09-23T13:03:50Z,42.805,6.029,13.2997,4.60052,2470.38,2021-9-23T15:05:12Z
2021-09-23T13:06:53Z,42.805,6.029,13.3001,4.60062,2470.404,2021-9-23T15:08:15Z
2021-09-23T13:09:56Z,42.805,6.029,13.2999,4.60040,2470.404,2021-9-23T15:11:18Z
2021-09-23T13:12:59Z,42.805,6.029,13.2999,4.60051,2470.39,2021-9-23T15:14:21Z
2021-09-23T13:16:03Z,42.805,6.029,13.2994,4.60057,2470.366,2021-9-23T15:17:24Z
2021-09-23T13:19:06Z,42.805,6.029,13.2996,4.60057,2470.404,2021-9-23T15:20:27Z
2021-09-23T13:22:09Z,42.805,6.029,13.2997,4.60049,2470.357,2021-9-23T15:23:30Z
2021-09-23T13:25:12Z,42.805,6.029,13.2997,4.60047,2470.427,2021-9-23T15:26:34Z
2021-09-23T13:28:15Z,42.805,6.029,13.2998,4.60049,2470.366,2021-9-23T15:29:37Z
2021-09-23T13:31:18Z,42.805,6.029,13.2996,4.60053,2470.38,2021-9-23T15:32:40Z
2021-09-23T13:34:21Z,42.805,6.029,13.2998,4.60079,2470.366,2021-9-23T15:35:43Z
2021-09-23T13:37:24Z,42.805,6.029,13.2993,4.60077,2470.343,2021-9-23T15:38:46Z
2021-09-23T13:40:28Z,42.805,6.029,13.3001,4.60084,2470.366,2021-9-23T15:41:49Z
2021-09-23T13:43:31Z,42.805,6.029,13.3000,4.60084,2470.366,2021-9-23T15:44:52Z
2021-09-23T13:46:34Z,42.805,6.029,13.2999,4.60089,2470.334,2021-9-23T15:47:56Z
2021-09-23T13:49:37Z,42.805,6.029,13.3004,4.60089,2470.366,2021-9-23T15:50:59Z
2021-09-23T13:52:40Z,42.805,6.029,13.3024,4.60060,2470.343,2021-9-23T15:54:02Z
2021-09-23T13:55:43Z,42.805,6.029,13.3025,4.60066,2470.404,2021-9-23T15:57:05Z
2021-09-23T13:58:46Z,42.805,6.029,13.3033,4.60072,2470.334,2021-9-23T16:00:08Z
2021-09-23T14:01:49Z,42.805,6.029,13.3051,4.60078,2470.343,2021-9-23T16:03:11Z
2021-09-23T14:04:53Z,42.805,6.029,13.3034,4.60082,2470.32,2021-9-23T16:06:14Z
2021-09-23T14:07:56Z,42.805,6.029,13.3031,4.60064,2470.343,2021-9-23T16:09:17Z
2021-09-23T14:10:59Z,42.805,6.029,13.3004,4.60075,2470.366,2021-9-23T16:12:21Z
2021-09-23T14:14:02Z,42.805,6.029,13.3000,4.60034,2470.38,2021-9-23T16:15:24Z
2021-09-23T14:17:05Z,42.805,6.029,13.3001,4.60049,2470.334,2021-9-23T16:18:27Z
2021-09-23T14:20:08Z,42.805,6.029,13.3036,4.60110,2470.357,2021-9-23T16:21:30Z
2021-09-23T14:23:11Z,42.805,6.029,13.2992,4.60135,2470.357,2021-9-23T16:24:33Z
2021-09-23T14:26:14Z,42.805,6.029,13.3002,4.60147,2470.357,2021-9-23T16:27:36Z
2021-09-23T14:29:18Z,42.805,6.029,13.3002,4.60111,2470.334,2021-9-23T16:30:39Z
2021-09-23T14:32:21Z,42.805,6.029,13.2993,4.60159,2470.334,2021-9-23T16:33:42Z
2021-09-23T14:35:24Z,42.805,6.029,13.2989,4.60137,2470.357,2021-9-23T16:36:46Z
2021-09-23T14:38:27Z,42.805,6.029,13.2993,4.60135,2470.32,2021-9-23T16:39:49Z
2021-09-23T14:41:30Z,42.805,6.029,13.2990,4.60141,2470.334,2021-9-23T16:42:52Z
2021-09-23T14:44:33Z,42.805,6.029,13.2994,4.60129,2470.334,2021-9-23T16:45:55Z
2021-09-23T14:47:36Z,42.805,6.029,13.2986,4.60102,2470.334,2021-9-23T16:48:58Z
2021-09-23T14:50:40Z,42.805,6.029,13.2990,4.60102,2470.32,2021-9-23T16:52:01Z
2021-09-23T14:53:43Z,42.805,6.029,13.2991,4.60085,2470.38,2021-9-23T16:55:04Z
2021-09-23T14:56:46Z,42.805,6.029,13.2991,4.60098,2470.32,2021-9-23T16:58:07Z
2021-09-23T14:59:49Z,42.805,6.029,13.2990,4.60089,2470.357,2021-9-23T17:01:11Z
2021-09-23T15:02:52Z,42.805,6.029,13.2991,4.60080,2470.32,2021-9-23T17:04:14Z
2021-09-23T15:05:55Z,42.805,6.029,13.2991,4.60109,2470.31,2021-9-23T17:07:17Z
2021-09-23T15:08:58Z,42.805,6.029,13.2990,4.60119,2470.343,2021-9-23T17:10:20Z
2021-09-23T15:12:01Z,42.805,6.029,13.2990,4.60075,2470.366,2021-9-23T17:13:23Z
2021-09-23T15:15:05Z,42.805,6.029,13.2986,4.60094,2470.357,2021-9-23T17:16:26Z